This is the latest recevied weather packets stored in our database for station/object WR9A-13. If no packets are shown the sender has not sent any weather packets the latest 10 day(s).
| Time | Temp. | Humidity | Pressure | Rain* | Wind** | Luminosity | Snow |
|---|---|---|---|---|---|---|---|
| 1787515228 | 26.11° C | 57% | 1016.6 hPa | 0 mm | - | - | - |
| 1787514926 | 26.11° C | 57% | 1016.7 hPa | 0 mm | - | - | - |
| 1787514615 | 26.11° C | 56% | 1016.8 hPa | 0 mm | - | - | - |
| 1787514331 | 26.11° C | 58% | 1016.7 hPa | 0 mm | - | - | - |
| 1787514018 | 26.11° C | 59% | 1016.6 hPa | 0 mm | - | - | - |
| 1787513735 | 26.11° C | 59% | 1016.6 hPa | 0 mm | - | - | - |
| 1787513423 | 26.67° C | 58% | 1016.8 hPa | 0 mm | - | - | - |
| 1787513123 | 26.67° C | 58% | 1016.8 hPa | 0 mm | - | - | - |
| 1787512831 | 27.22° C | 59% | 1016.8 hPa | 0 mm | - | - | - |
| 1787512528 | 26.67° C | 59% | 1016.9 hPa | 0 mm | - | - | - |
| 1787512215 | 26.67° C | 58% | 1017 hPa | 0 mm | - | - | - |
| 1787511933 | 27.22° C | 57% | 1017 hPa | 0 mm | - | - | - |
| 1787511616 | 26.67° C | 58% | 1016.9 hPa | 0 mm | - | - | - |
| 1787511333 | 26.67° C | 60% | 1017 hPa | 0 mm | - | - | - |
| 1787511022 | 26.67° C | 60% | 1017.1 hPa | 0 mm | - | - | - |
| 1787510720 | 26.67° C | 60% | 1017.2 hPa | 0 mm | - | - | - |
| 1787510437 | 26.67° C | 60% | 1017.1 hPa | 0 mm | - | - | - |
| 1787510125 | 26.67° C | 59% | 1017.1 hPa | 0 mm | - | - | - |
| 1787509842 | 26.67° C | 56% | 1017.2 hPa | 0 mm | - | - | - |
| 1787509530 | 26.67° C | 59% | 1017.2 hPa | 0 mm | - | - | - |
| 1787509218 | 26.67° C | 60% | 1017.1 hPa | 0 mm | - | - | - |
| 1787508915 | 26.67° C | 59% | 1017.2 hPa | 0 mm | - | - | - |
| 1787508632 | 26.11° C | 60% | 1017.2 hPa | 0 mm | - | - | - |
| 1787508318 | 26.11° C | 60% | 1017.2 hPa | 0 mm | - | - | - |
| 1787508030 | 26.11° C | 62% | 1017.2 hPa | 0 mm | - | - | - |
* Rain latest hour (hover to see other rain measurements)
** Current wind speed in m/s (hover to see current wind gust speed)